sat.trackr.live / text

‹ back to catalog

STARLINK-33990

NORAD 63840 · 2025-093E

PAYLOAD ACTIVE UNKNOWN

§ Identity

Operator
Country
US
Launch date
2025-05-07
Launch site
AFETR
Launch vehicle
Mass (kg)
RCS (m²)

Purposes: comms

External: N2YO · Heavens-Above · Gunter

§ Orbital elements

Epoch: 2026-05-25T00:02:50.915616Z

Period
94.27 min
Inclination
43.0034°
Eccentricity
0.0001382
Mean motion
15.27596423 rev/d
Perigee alt
482.1 km
Apogee alt
483.9 km
Semi-major
6,861.1 km
B*
5.0650e-4
RAAN
6.8780°
Arg perigee
270.8278°
Mean anomaly
89.2415°
Rev number
5,942

§ Raw data

STARLINK-339901 63840U 25093E   26145.00197819  .00013708  00000+0  50650-3 0  99902 63840  43.0034   6.8780 0001382 270.8278  89.2415 15.27596423 59427

JSON: /api/v1/satellites/63840 · /tle

For live sub-satellite position, see the globe view (requires WebGL).

§ Visibility from observer

Set your observer location to see the next 7 days of passes ≥ 10°. The values pass through the URL so the page stays shareable.

No JS? Fill the form by hand. The geolocation button needs JavaScript.